weather.gov     
National Weather Service

Regional Weather Roundup
NWS Homepage
This page is being discontinued on March 12, 2014.
The same data is available at this site. Please update your bookmarks.
Thank you, and we apologize for the inconvenience.
Please send an email to SR-SRH.Webmaster@noaa.gov with any concerns.


Current Version
Previous Version:    01  02  03  04  05  06  07  08  09  10  11  12  13  14  15  16  17  18  19  20  21  22  23  24  25  26  27  28  29  30  
   31  32  33  34  35  36  37  38  39  40  41  42  43  44  45  46  47  48  49  50  51  52  53  54  55  56  57  58  59  60  
[Printable]
188
ASUS44 KFWD 200103
RWRTX
NORTH TEXAS HOURLY WEATHER ROUNDUP
NATIONAL WEATHER SERVICE FORT WORTH TX
700 PM CST FRI DEC 19 2014

NOTE: "FAIR" INDICATES FEW OR NO CLOUDS BELOW 12,000 FEET WITH NO
SIGNIFICANT WEATHER AND/OR OBSTRUCTIONS TO VISIBILITY.

TXZ118-119-200200-
DALLAS/FORT WORTH METROPLEX

CITY           SKY/WX    TMP DP  RH WIND       PRES   REMARKS
DFW AIRPORT    CLOUDY    48  44  86 NE10      30.18R
DALLAS LOVE    CLOUDY    49  45  86 N7        30.18S
FTW MEACHAM    CLOUDY    49  43  80 N6        30.18R
DAL-EXECUTIVE  CLOUDY    50  45  83 N6        30.18R
FTW-ALLIANCE   CLOUDY    47  43  86 N8        30.18S
FTW-SPINKS     CLOUDY    48  45  87 N8        30.20R
ARLINGTON      CLOUDY    49  44  83 N6        30.19R
ADDISON        CLOUDY    48  45  87 N8        30.19R FOG
MESQUITE       CLOUDY    48  46  93 N7        30.19R
LANCASTER      CLOUDY    48  44  87 N6        30.20R
$$

TXZ091>094-102>105-117-120-121-131>134-200200-
NORTH CENTRAL TEXAS

CITY           SKY/WX    TMP DP  RH WIND       PRES   REMARKS
SHRMAN/DENISON CLOUDY    45  44  97 CALM      30.20S
BRIDGEPORT     CLOUDY    46  43  87 N3        30.20S
DECATUR        CLOUDY    45  42  91 N5        30.18S
DENTON         CLOUDY    46  42  86 N7        30.19S
MCKINNEY       CLOUDY    47  44  90 N7        30.19R
ROCKWALL       CLOUDY    47  46  95 N6        30.18R
TERRELL        CLOUDY    50  46  86 NE8       30.19R
WAXAHACHIE     CLOUDY    47  47 100 N6        30.19R FOG
CLEBURNE       CLOUDY    46  46 100 N8        30.19S
GRANBURY       CLOUDY    49  44  84 CALM      30.20R
$$

TXZ083>090-098>101-113>116-127>130-139>142-154-155-200200-
WESTERN NORTH TEXAS

CITY           SKY/WX    TMP DP  RH WIND       PRES   REMARKS
WICHITA FALLS  CLOUDY    44  40  85 NE3       30.20R
WF-KICKAPOO    CLOUDY    45  40  84 NE3       30.22R
VERNON         CLOUDY    46  38  74 CALM      30.21R
ABILENE        CLOUDY    45  40  82 NE5       30.18R
BRECKENRIDGE   CLOUDY    49  40  72 CALM      30.19R
MINERAL WELLS  CLOUDY    47  42  83 N5        30.17R
STEPHENVILLE   CLOUDY    46  42  85 N5        30.20R
COMANCHE       CLOUDY    47  47 100 NE6       30.17S
COLEMAN        CLOUDY    48  44  86 NE5       30.17R
BRADY          CLOUDY    48  45  87 N9        30.14R
$$

TXZ143>147-156>162-174-175-200200-
CENTRAL TEXAS

CITY           SKY/WX    TMP DP  RH WIND       PRES   REMARKS
WACO           CLOUDY    49  46  90 N8        30.18R
WACO-TSTC      CLOUDY    48  46  93 N9        30.17R
WACO-MCGREGOR  CLOUDY    48  43  81 N9        30.18R
CORSICANA      CLOUDY    49  46  90 N7        30.18R
MEXIA          CLOUDY    47  46  97 N8        30.15S FOG
HEARNE         CLOUDY    49  48  94 NW9       30.16R FOG
TEMPLE         CLOUDY    48  43  81 N14       30.16R
KILLEEN        DRIZZLE   46  46 100 N12       30.17R FOG
KILLEEN-SKYLRK CLOUDY    48  41  76 N8        30.13R
FORT HOOD      CLOUDY    47  46  95 N10       30.16R FOG
GATESVILLE     CLOUDY    46  46 100 N8        30.20R
HAMILTON       CLOUDY    46  46 100 N5        30.18R
$$

TXZ095>097-106>112-122>126-135>138-148>153-164>167-200200-
EAST TEXAS

CITY           SKY/WX    TMP DP  RH WIND       PRES   REMARKS
PARIS          CLOUDY    45  43  93 NE6       30.21R
SULPHUR SPRNGS CLOUDY    46  44  92 NE5       30.21R
MOUNT PLEASANT CLOUDY    46  45  96 N6        30.20S
MINEOLA        CLOUDY    46  46 100 N5        30.19S FOG
TYLER          CLOUDY    47  45  93 N9        30.16R FOG
LONGVIEW       CLOUDY    48  45  89 NE8       30.16R
MARSHALL       CLOUDY    49  47  92 CALM      30.19R
PALESTINE      CLOUDY    49  48  99 N7        30.16S FOG
JACKSONVILLE   CLOUDY    48  48  98 NE7       30.16R FOG
HENDERSON      CLOUDY    48  47  98 NE7       30.17R
NACOGDOCHES    CLOUDY    48  45  87 N5        30.15R
LUFKIN         CLOUDY    53  48  83 N10       30.13R HAZE
$$

SUPPLEMENTAL OBSERVATIONS (CENTRAL)

CITY           SKY/WX    TMP DP  RH WIND       PRES   REMARKS
$$

SUPPLEMENTAL OBSERVATIONS (WEST)

CITY           SKY/WX    TMP DP  RH WIND       PRES   REMARKS
$$

SUPPLEMENTAL OBSERVATIONS (EAST)

CITY           SKY/WX    TMP DP  RH WIND       PRES   REMARKS
$$

SUPPLEMENTAL OBSERVATIONS ARE A COLLECTION OF AUTOMATED INSTRUMENTS
THAT ARE MAINTAINED BY A VARIETY OF FEDERAL AND STATE AGENCIES.
CERTAIN ELEMENTS...SUCH AS HUMIDITY VALUES AND SUSTAINED WIND
SPEEDS...MAY BE APPROXIMATED.





U.S. Dept. of Commerce
NOAA National Weather Service
1325 East West Highway
Silver Spring, MD 20910
E-mail: w-nws.webmaster@noaa.gov
Page last modified: May 16, 2007
NATIONAL WEATHER SERVICE: for Safety, for Work, for Fun - FOR LIFE